2022/11/06 23:31:47+0000,-33.52,-44.36,-32.45,-48.73,-51.92,-52.89
2022/11/06 23:32:39+0000,-34.37,-44.16,-32.41,-48.04,-51.21,-51.39
2022/11/06 23:33:31+0000,-33.55,-44.49,-31.60,-48.22,-51.17,-52.43
2022/11/06 23:34:23+0000,-33.48,-44.47,-32.37,-47.58,-51.47,-52.19
2022/11/06 23:35:15+0000,-33.90,-44.87,-31.89,-47.98,-50.95,-51.86
2022/11/06 23:36:07+0000,-33.49,-44.60,-32.17,-46.67,-51.75,-52.11
2022/11/06 23:36:59+0000,-32.99,-44.13,-31.47,-48.94,-51.53,-52.02
2022/11/06 23:37:52+0000,-34.39,-44.56,-31.68,-47.52,-50.91,-52.02
2022/11/06 23:38:44+0000,-33.95,-44.48,-32.53,-47.95,-49.81,-51.79
2022/11/06 23:39:36+0000,-33.20,-45.32,-31.89,-47.59,-51.73,-52.67
2022/11/06 23:40:28+0000,-34.87,-45.15,-31.94,-47.21,-51.97,-51.53
2022/11/06 23:41:43+0000,-34.40,-44.28,-32.48,-49.53,-50.16,-51.68
2022/11/06 23:42:35+0000,-33.97,-43.35,-32.49,-48.59,-51.96,-52.83
2022/11/06 23:43:27+0000,-33.96,-44.26,-32.09,-47.56,-51.94,-51.61
2022/11/06 23:44:19+0000,-33.56,-44.90,-31.94,-47.87,-50.59,-52.82
2022/11/06 23:45:11+0000,-33.86,-44.48,-31.67,-48.63,-51.53,-51.64
2022/11/06 23:46:03+0000,-34.26,-44.80,-32.01,-45.29,-50.48,-52.06
2022/11/06 23:46:56+0000,-33.48,-44.61,-31.94,-47.22,-51.45,-52.39
2022/11/06 23:47:48+0000,-34.27,-45.32,-32.13,-47.61,-49.53,-52.94
2022/11/06 23:48:40+0000,-33.86,-44.68,-31.78,-47.77,-51.37,-52.65
2022/11/06 23:49:32+0000,-34.96,-44.82,-31.74,-48.20,-52.18,-52.86
2022/11/06 23:50:24+0000,-33.56,-44.83,-31.91,-47.37,-48.95,-52.91
2022/11/06 23:51:22+0000,-31.71,-44.71,-32.02,-46.67,-49.08,-52.03
2022/11/06 23:52:14+0000,-33.51,-44.62,-32.14,-47.97,-49.00,-51.50
2022/11/06 23:53:06+0000,-34.19,-44.42,-32.06,-49.28,-51.72,-51.96
2022/11/06 23:53:58+0000,-34.44,-44.39,-31.83,-46.81,-51.91,-52.26
2022/11/06 23:54:50+0000,-34.37,-45.17,-32.23,-50.12,-50.55,-53.46
2022/11/06 23:55:42+0000,-33.64,-43.30,-32.59,-47.95,-52.34,-52.12
2022/11/06 23:56:34+0000,-33.93,-43.89,-32.53,-49.09,-51.21,-53.43
2022/11/06 23:57:26+0000,-34.70,-44.94,-31.90,-48.00,-52.64,-53.65
2022/11/06 23:58:18+0000,-35.39,-43.95,-31.04,-47.62,-51.63,-53.02
2022/11/06 23:59:10+0000,-33.71,-42.72,-31.80,-47.52,-51.39,-51.24
2022/11/07 00:00:02+0000,-34.35,-45.07,-31.06,-47.27,-51.48,-50.98
2022/11/07 00:01:05+0000,-33.65,-44.71,-31.16,-47.68,-50.74,-51.11
2022/11/07 00:01:57+0000,-33.86,-44.29,-32.15,-46.90,-51.82,-50.92
2022/11/07 00:02:49+0000,-33.45,-44.58,-31.23,-48.62,-51.48,-51.32
2022/11/07 00:03:41+0000,-34.17,-45.39,-31.64,-46.67,-50.63,-50.69
2022/11/07 00:04:33+0000,-34.56,-43.75,-31.08,-49.53,-51.73,-51.09
2022/11/07 00:05:25+0000,-33.92,-44.74,-32.22,-48.82,-51.33,-51.23
2022/11/07 00:06:17+0000,-34.13,-43.92,-32.21,-47.61,-50.98,-51.01
2022/11/07 00:07:09+0000,-34.05,-44.07,-32.17,-45.36,-52.07,-50.72
2022/11/07 00:08:01+0000,-33.77,-39.90,-32.08,-47.57,-50.86,-51.18
2022/11/07 00:08:53+0000,-35.24,-41.66,-31.76,-47.66,-50.38,-52.32
2022/11/07 00:09:45+0000,-34.16,-42.65,-32.17,-47.72,-50.13,-51.47
2022/11/07 00:10:37+0000,-34.80,-41.73,-31.28,-47.44,-49.97,-51.60
2022/11/07 00:11:39+0000,-34.17,-40.43,-31.40,-48.30,-50.44,-51.66
2022/11/07 00:12:32+0000,-34.74,-40.49,-32.24,-48.36,-49.97,-51.44
2022/11/07 00:13:24+0000,-35.18,-41.34,-32.06,-49.41,-49.53,-51.01
2022/11/07 00:14:16+0000,-34.58,-40.52,-32.66,-48.88,-49.90,-50.79
2022/11/07 00:15:08+0000,-34.24,-40.79,-32.23,-48.20,-50.83,-51.16
2022/11/07 00:16:00+0000,-33.49,-40.82,-31.69,-49.25,-50.26,-51.45
2022/11/07 00:16:52+0000,-34.54,-40.76,-32.06,-47.79,-48.93,-51.92
2022/11/07 00:17:44+0000,-34.16,-42.24,-32.17,-48.35,-48.84,-50.14
2022/11/07 00:18:36+0000,-33.63,-41.82,-32.10,-48.09,-48.98,-50.56
2022/11/07 00:19:28+0000,-32.62,-41.67,-32.38,-47.20,-51.16,-52.40
2022/11/07 00:20:20+0000,-33.69,-42.24,-32.23,-48.02,-51.19,-53.03
2022/11/07 00:21:20+0000,-34.24,-40.92,-32.32,-48.25,-50.74,-53.03
2022/11/07 00:22:12+0000,-33.86,-41.92,-31.78,-48.11,-51.27,-53.06
2022/11/07 00:23:04+0000,-35.02,-41.72,-31.91,-49.01,-51.08,-53.42
2022/11/07 00:23:56+0000,-34.76,-40.94,-32.14,-46.84,-48.78,-51.26
2022/11/07 00:24:48+0000,-34.27,-40.70,-32.29,-48.76,-49.91,-53.33
2022/11/07 00:25:40+0000,-35.05,-41.64,-31.58,-46.69,-51.84,-53.43
2022/11/07 00:26:32+0000,-35.58,-42.32,-31.89,-46.50,-51.71,-53.09
2022/11/07 00:27:24+0000,-34.52,-42.85,-32.37,-46.40,-51.97,-53.18
2022/11/07 00:28:16+0000,-34.53,-41.57,-32.30,-46.83,-51.76,-53.12
2022/11/07 00:29:08+0000,-33.81,-41.97,-31.71,-46.43,-51.40,-52.80
2022/11/07 00:30:00+0000,-33.43,-41.80,-31.48,-47.98,-52.05,-52.10
2022/11/07 00:30:58+0000,-33.67,-41.53,-31.84,-47.90,-51.96,-51.87
2022/11/07 00:31:50+0000,-33.76,-42.46,-31.64,-49.04,-51.17,-53.40
2022/11/07 00:32:42+0000,-33.83,-42.88,-32.02,-47.06,-51.43,-52.17
2022/11/07 00:33:34+0000,-34.01,-42.23,-31.94,-48.63,-51.25,-52.78
2022/11/07 00:34:26+0000,-34.05,-40.96,-31.76,-46.87,-51.58,-52.47
2022/11/07 00:35:18+0000,-34.29,-41.57,-31.96,-48.50,-51.29,-52.93
2022/11/07 00:36:10+0000,-33.76,-42.09,-31.54,-45.72,-51.52,-53.43
2022/11/07 00:37:02+0000,-33.48,-42.15,-30.68,-48.05,-51.39,-53.50
2022/11/07 00:37:55+0000,-34.53,-42.31,-32.05,-48.07,-51.72,-53.02
2022/11/07 00:38:47+0000,-33.79,-41.58,-32.43,-46.51,-51.04,-53.55
2022/11/07 00:39:39+0000,-34.98,-41.28,-30.68,-47.58,-51.29,-53.23
2022/11/07 00:40:31+0000,-34.65,-41.93,-31.50,-47.88,-50.98,-51.94
2022/11/07 00:41:32+0000,-34.84,-43.70,-31.06,-47.84,-51.61,-53.08
2022/11/07 00:42:24+0000,-33.65,-42.69,-31.40,-47.43,-51.32,-53.83
2022/11/07 00:43:16+0000,-33.85,-42.07,-32.34,-47.52,-51.34,-52.52
2022/11/07 00:44:08+0000,-34.63,-41.65,-31.21,-47.76,-51.61,-52.77
2022/11/07 00:45:00+0000,-34.04,-40.93,-31.05,-47.16,-51.96,-52.06
2022/11/07 00:45:52+0000,-34.35,-42.83,-31.56,-47.21,-51.89,-53.11
2022/11/07 00:46:44+0000,-33.76,-42.75,-31.98,-47.55,-51.93,-53.16
2022/11/07 00:47:36+0000,-33.82,-41.78,-30.18,-48.96,-51.66,-53.30
2022/11/07 00:48:28+0000,-34.02,-42.31,-31.73,-48.21,-51.29,-53.06
2022/11/07 00:49:20+0000,-33.68,-41.95,-32.16,-48.66,-51.74,-52.79
2022/11/07 00:50:12+0000,-33.11,-41.28,-31.23,-46.01,-50.65,-53.10
2022/11/07 00:51:13+0000,-33.44,-42.42,-32.37,-47.86,-51.03,-52.85
2022/11/07 00:52:05+0000,-33.21,-42.65,-31.25,-49.32,-50.59,-53.08
2022/11/07 00:52:57+0000,-33.28,-41.69,-32.50,-47.58,-51.91,-52.65
2022/11/07 00:53:50+0000,-33.72,-41.31,-31.91,-48.32,-48.51,-51.87
2022/11/07 00:54:42+0000,-34.89,-41.46,-31.74,-46.98,-52.31,-52.86
2022/11/07 00:55:34+0000,-33.26,-41.02,-31.76,-48.59,-51.79,-53.13
2022/11/07 00:56:26+0000,-33.30,-41.83,-31.88,-47.78,-51.86,-53.66
2022/11/07 00:57:18+0000,-33.78,-41.06,-31.74,-47.93,-51.71,-52.69
2022/11/07 00:58:10+0000,-33.51,-41.61,-31.89,-48.56,-51.66,-51.76
2022/11/07 00:59:02+0000,-33.52,-40.69,-32.04,-49.33,-51.11,-52.82
2022/11/07 00:59:54+0000,-34.40,-41.82,-32.82,-48.43,-52.29,-52.79
2022/11/07 01:00:46+0000,-33.35,-40.89,-31.60,-47.83,-52.15,-52.93
2022/11/07 01:01:45+0000,-33.95,-42.08,-32.17,-48.02,-52.01,-52.91
2022/11/07 01:02:37+0000,-34.06,-45.07,-31.39,-48.13,-52.14,-53.06
2022/11/07 01:03:29+0000,-33.65,-42.77,-32.38,-48.41,-52.12,-52.36
2022/11/07 01:04:21+0000,-32.41,-43.72,-32.25,-48.32,-50.86,-51.50
2022/11/07 01:05:13+0000,-33.53,-42.84,-32.78,-48.74,-51.68,-52.24
2022/11/07 01:06:05+0000,-33.85,-43.17,-31.85,-48.41,-52.04,-52.58
2022/11/07 01:06:57+0000,-32.66,-42.48,-32.87,-48.58,-52.23,-52.55
2022/11/07 01:07:49+0000,-34.09,-42.29,-31.94,-49.73,-52.15,-52.58
2022/11/07 01:08:41+0000,-33.59,-43.59,-33.06,-47.76,-51.96,-52.32
2022/11/07 01:09:33+0000,-34.51,-42.03,-32.72,-49.28,-51.97,-52.41
2022/11/07 01:10:25+0000,-34.01,-42.12,-32.39,-47.81,-52.45,-52.60
2022/11/07 01:11:24+0000,-33.87,-44.26,-33.04,-48.47,-51.68,-52.21
2022/11/07 01:12:16+0000,-34.03,-43.88,-32.07,-47.83,-51.42,-52.12
2022/11/07 01:13:08+0000,-33.94,-43.78,-31.97,-47.08,-51.36,-52.48
2022/11/07 01:14:00+0000,-33.46,-44.48,-32.21,-47.98,-51.09,-52.20
2022/11/07 01:14:52+0000,-32.75,-43.39,-32.74,-46.74,-52.49,-53.08
2022/11/07 01:15:44+0000,-33.17,-43.24,-32.58,-46.36,-52.99,-53.25
2022/11/07 01:16:36+0000,-34.33,-44.20,-31.82,-47.00,-53.01,-53.33
2022/11/07 01:17:28+0000,-33.41,-43.55,-32.16,-47.12,-52.57,-52.78
2022/11/07 01:18:20+0000,-31.69,-43.99,-32.50,-47.96,-52.49,-52.61
2022/11/07 01:19:12+0000,-33.83,-42.43,-32.30,-47.82,-52.47,-53.19
2022/11/07 01:20:04+0000,-33.53,-43.97,-32.35,-49.61,-51.97,-52.43
2022/11/07 01:21:04+0000,-34.40,-43.84,-31.81,-49.66,-52.43,-52.34
2022/11/07 01:21:56+0000,-33.55,-43.90,-32.05,-46.83,-52.21,-50.39
2022/11/07 01:22:48+0000,-33.40,-44.40,-31.78,-49.11,-50.99,-51.99
2022/11/07 01:23:40+0000,-33.29,-43.42,-31.96,-47.09,-52.19,-52.01
2022/11/07 01:24:32+0000,-33.83,-43.81,-31.62,-46.31,-51.55,-52.79
2022/11/07 01:25:24+0000,-32.69,-43.40,-32.63,-48.06,-51.74,-52.14
2022/11/07 01:26:16+0000,-34.03,-43.65,-32.01,-45.18,-51.35,-52.50
2022/11/07 01:27:08+0000,-34.10,-43.33,-31.99,-46.22,-51.57,-52.15
2022/11/07 01:28:00+0000,-33.36,-43.88,-31.89,-48.27,-51.60,-52.36
2022/11/07 01:28:52+0000,-32.73,-44.23,-32.03,-47.87,-51.65,-52.49
2022/11/07 01:29:44+0000,-33.38,-42.35,-31.98,-48.21,-51.64,-52.96
2022/11/07 01:30:36+0000,-32.75,-44.07,-32.04,-48.70,-51.53,-52.66
2022/11/07 01:31:35+0000,-33.80,-43.95,-31.92,-49.21,-51.63,-52.63
2022/11/07 01:32:27+0000,-33.60,-43.24,-32.47,-48.68,-51.08,-52.22
2022/11/07 01:33:19+0000,-32.64,-43.57,-32.71,-48.99,-51.49,-53.06
2022/11/07 01:34:11+0000,-33.61,-43.86,-32.32,-48.80,-51.31,-52.49
2022/11/07 01:35:03+0000,-33.67,-43.76,-32.30,-48.60,-51.31,-52.86
2022/11/07 01:35:55+0000,-32.84,-43.40,-32.67,-48.62,-50.82,-52.55
2022/11/07 01:36:47+0000,-33.50,-44.33,-32.06,-49.65,-51.01,-52.48
2022/11/07 01:37:40+0000,-33.05,-42.44,-32.41,-48.09,-51.80,-52.54
2022/11/07 01:38:32+0000,-33.41,-43.59,-32.16,-48.36,-51.24,-52.43
2022/11/07 01:39:24+0000,-33.91,-44.47,-32.06,-48.15,-51.40,-51.92
2022/11/07 01:40:16+0000,-33.59,-42.58,-31.88,-48.63,-52.43,-52.13
2022/11/07 01:41:15+0000,-34.29,-44.19,-32.46,-48.82,-52.02,-52.31
2022/11/07 01:42:07+0000,-34.62,-43.12,-32.54,-48.43,-51.22,-52.45
2022/11/07 01:42:59+0000,-32.70,-44.06,-32.58,-47.93,-51.53,-52.76
2022/11/07 01:43:51+0000,-32.68,-44.37,-32.32,-47.95,-51.76,-53.09
2022/11/07 01:44:43+0000,-33.77,-44.04,-32.71,-44.67,-51.31,-52.67
2022/11/07 01:45:35+0000,-34.26,-44.28,-31.59,-49.06,-51.11,-52.95
2022/11/07 01:46:27+0000,-33.48,-44.07,-32.55,-48.65,-51.36,-52.42
2022/11/07 01:47:19+0000,-34.27,-44.11,-32.53,-47.40,-51.73,-52.20
2022/11/07 01:48:11+0000,-34.10,-43.62,-32.76,-47.96,-51.63,-52.50
2022/11/07 01:49:03+0000,-34.23,-44.59,-31.53,-46.84,-51.13,-52.83
2022/11/07 01:49:56+0000,-32.94,-43.13,-32.75,-48.42,-51.12,-53.07
2022/11/07 01:50:48+0000,-33.66,-42.42,-32.19,-49.01,-51.81,-52.27
2022/11/07 01:51:47+0000,-33.47,-43.06,-31.83,-49.91,-51.19,-52.86
2022/11/07 01:52:39+0000,-33.57,-42.74,-32.03,-48.83,-50.96,-52.28
2022/11/07 01:53:31+0000,-33.91,-44.14,-32.11,-47.34,-51.41,-52.86
2022/11/07 01:54:23+0000,-32.94,-44.10,-32.76,-47.32,-50.59,-52.61
2022/11/07 01:55:15+0000,-34.00,-42.20,-32.38,-47.87,-51.28,-52.59
2022/11/07 01:56:07+0000,-34.16,-44.60,-32.17,-48.59,-51.41,-52.44
2022/11/07 01:56:59+0000,-34.75,-44.78,-32.50,-46.62,-50.98,-53.03
2022/11/07 01:57:51+0000,-33.16,-40.58,-32.71,-48.35,-51.14,-52.64
2022/11/07 01:58:43+0000,-33.79,-43.41,-31.81,-49.35,-51.77,-52.17
2022/11/07 01:59:35+0000,-33.77,-41.91,-32.32,-48.36,-44.52,-51.02
2022/11/07 02:00:27+0000,-33.15,-41.76,-32.48,-48.08,-50.01,-50.48
2022/11/07 02:01:28+0000,-32.20,-42.77,-31.95,-47.92,-50.52,-51.66
2022/11/07 02:02:20+0000,-32.76,-42.15,-32.52,-48.14,-50.25,-50.99
2022/11/07 02:03:12+0000,-34.54,-41.93,-32.58,-48.72,-49.84,-50.63
2022/11/07 02:04:04+0000,-33.78,-42.08,-32.18,-48.80,-51.00,-51.27
2022/11/07 02:04:56+0000,-34.35,-44.12,-32.27,-47.73,-50.66,-51.43
2022/11/07 02:05:48+0000,-34.48,-43.34,-32.04,-48.81,-49.55,-50.80
2022/11/07 02:06:40+0000,-33.53,-42.41,-32.60,-49.31,-49.90,-51.10
2022/11/07 02:07:32+0000,-34.41,-42.69,-32.17,-48.84,-49.77,-50.86
2022/11/07 02:08:24+0000,-33.67,-41.99,-32.23,-48.64,-49.91,-51.17
2022/11/07 02:09:16+0000,-34.64,-42.34,-31.62,-49.03,-50.07,-51.24
2022/11/07 02:10:08+0000,-34.04,-41.38,-32.13,-48.58,-50.25,-51.15
2022/11/07 02:11:08+0000,-33.98,-44.71,-32.27,-48.60,-49.69,-50.93
2022/11/07 02:12:00+0000,-33.96,-41.92,-32.65,-46.01,-50.10,-51.49
2022/11/07 02:12:52+0000,-33.85,-43.63,-31.70,-44.78,-49.95,-51.28
2022/11/07 02:13:44+0000,-33.36,-43.18,-32.01,-47.92,-49.80,-50.86
2022/11/07 02:14:36+0000,-34.79,-43.92,-32.09,-48.42,-49.91,-51.22
2022/11/07 02:15:28+0000,-34.14,-43.19,-32.52,-47.57,-50.19,-51.01
2022/11/07 02:16:20+0000,-34.39,-43.51,-31.88,-45.52,-50.30,-50.68
2022/11/07 02:17:12+0000,-34.58,-42.25,-32.60,-48.01,-50.03,-51.34
2022/11/07 02:18:04+0000,-34.39,-43.31,-32.05,-48.88,-48.86,-51.36
2022/11/07 02:18:56+0000,-34.90,-43.91,-32.15,-47.36,-49.04,-50.59
2022/11/07 02:19:48+0000,-35.09,-42.33,-32.17,-49.11,-49.60,-51.02
2022/11/07 02:20:40+0000,-34.98,-42.35,-31.98,-48.99,-49.81,-50.96
2022/11/07 02:21:39+0000,-34.93,-42.97,-31.21,-49.36,-49.92,-51.06
2022/11/07 02:22:31+0000,-34.37,-42.05,-31.77,-48.90,-49.24,-51.33
2022/11/07 02:23:24+0000,-34.66,-42.28,-32.43,-49.26,-49.42,-50.45
2022/11/07 02:24:16+0000,-33.89,-42.22,-32.51,-50.06,-49.17,-50.54
2022/11/07 02:25:08+0000,-34.62,-43.10,-32.47,-49.30,-46.78,-50.63
2022/11/07 02:26:00+0000,-33.91,-42.27,-32.35,-47.99,-48.59,-50.73
2022/11/07 02:26:52+0000,-34.08,-43.42,-32.65,-49.34,-49.36,-50.68
2022/11/07 02:27:44+0000,-34.29,-42.33,-31.86,-48.96,-48.88,-48.78
2022/11/07 02:28:36+0000,-33.51,-43.01,-31.86,-49.11,-50.86,-50.91
2022/11/07 02:29:28+0000,-34.26,-42.62,-32.84,-48.42,-51.72,-51.23
2022/11/07 02:30:20+0000,-33.02,-42.17,-32.86,-49.53,-51.59,-51.48
2022/11/07 02:31:27+0000,-34.06,-43.22,-32.15,-48.06,-52.12,-51.62
2022/11/07 02:32:19+0000,-34.27,-44.24,-32.17,-48.07,-50.54,-51.36
2022/11/07 02:33:11+0000,-34.31,-42.63,-32.22,-49.21,-51.41,-51.67
2022/11/07 02:34:03+0000,-33.84,-41.71,-32.27,-48.62,-51.97,-51.80
2022/11/07 02:34:55+0000,-34.10,-42.73,-32.12,-48.70,-51.39,-51.49
2022/11/07 02:35:47+0000,-33.63,-43.03,-31.87,-48.64,-51.60,-51.67
2022/11/07 02:36:39+0000,-31.85,-43.12,-32.29,-49.35,-51.15,-51.92
2022/11/07 02:37:31+0000,-31.51,-43.99,-32.47,-46.92,-50.35,-51.43
2022/11/07 02:38:23+0000,-33.56,-43.39,-32.61,-48.36,-50.88,-51.55
2022/11/07 02:39:15+0000,-34.02,-42.65,-32.29,-48.72,-51.01,-51.72
2022/11/07 02:40:07+0000,-35.09,-43.10,-32.52,-48.55,-50.68,-51.62
2022/11/07 02:41:10+0000,-34.75,-43.62,-32.80,-48.27,-50.88,-51.52
2022/11/07 02:42:02+0000,-34.75,-42.89,-32.54,-46.69,-50.64,-52.23
2022/11/07 02:42:54+0000,-32.54,-42.88,-32.84,-48.50,-50.25,-51.74
2022/11/07 02:43:46+0000,-34.09,-43.13,-32.57,-49.48,-50.37,-51.16
2022/11/07 02:44:38+0000,-33.68,-43.00,-31.98,-49.07,-51.33,-51.27
2022/11/07 02:45:30+0000,-34.03,-42.34,-32.35,-49.01,-50.84,-51.57
2022/11/07 02:46:22+0000,-33.36,-43.88,-32.56,-48.94,-50.47,-51.39
2022/11/07 02:47:14+0000,-33.91,-43.42,-33.04,-49.06,-50.32,-51.42
2022/11/07 02:48:06+0000,-34.07,-43.15,-32.43,-49.45,-51.11,-51.42
2022/11/07 02:48:58+0000,-33.57,-42.40,-32.89,-49.90,-50.31,-51.37
2022/11/07 02:49:50+0000,-33.08,-41.92,-32.32,-49.55,-50.42,-51.81
2022/11/07 02:50:42+0000,-33.23,-43.08,-32.12,-48.88,-50.66,-51.45
2022/11/07 02:51:41+0000,-34.46,-42.89,-32.39,-49.54,-48.78,-51.14
2022/11/07 02:52:33+0000,-33.73,-44.56,-32.16,-48.11,-47.86,-51.23
2022/11/07 02:53:25+0000,-33.06,-42.28,-31.70,-49.20,-48.71,-50.70
2022/11/07 02:54:17+0000,-34.22,-43.47,-31.94,-48.72,-48.71,-50.87
2022/11/07 02:55:09+0000,-33.80,-41.69,-32.30,-49.43,-48.94,-50.73
2022/11/07 02:56:01+0000,-35.33,-42.60,-32.26,-48.67,-49.20,-50.99
2022/11/07 02:56:54+0000,-33.79,-43.48,-32.07,-48.94,-48.72,-51.02
2022/11/07 02:57:46+0000,-34.68,-41.70,-31.92,-48.87,-48.41,-50.59
2022/11/07 02:58:38+0000,-33.96,-42.81,-32.46,-49.07,-48.85,-51.80
2022/11/07 02:59:30+0000,-33.89,-44.01,-32.78,-48.84,-48.71,-51.05
2022/11/07 03:00:22+0000,-34.01,-44.17,-32.66,-49.30,-48.87,-50.67
2022/11/07 03:01:21+0000,-34.26,-41.83,-32.46,-49.09,-48.62,-52.15
2022/11/07 03:02:13+0000,-34.09,-42.23,-32.33,-48.79,-48.87,-51.07
2022/11/07 03:03:05+0000,-33.67,-42.40,-32.33,-48.28,-48.71,-51.11
2022/11/07 03:03:57+0000,-34.53,-41.66,-32.50,-48.76,-48.39,-51.25
2022/11/07 03:04:49+0000,-33.58,-42.93,-32.23,-48.39,-48.53,-51.14
2022/11/07 03:05:41+0000,-35.26,-43.16,-32.62,-48.37,-47.97,-51.77
2022/11/07 03:06:33+0000,-35.07,-43.05,-31.98,-48.20,-49.18,-51.14
2022/11/07 03:07:25+0000,-34.55,-41.40,-31.81,-48.69,-48.54,-51.37
2022/11/07 03:08:17+0000,-34.68,-41.26,-32.68,-48.28,-49.23,-51.44
2022/11/07 03:09:09+0000,-35.44,-41.81,-32.21,-48.44,-49.15,-51.78
2022/11/07 03:10:01+0000,-35.39,-42.74,-32.40,-48.21,-48.82,-51.39
2022/11/07 03:11:02+0000,-35.13,-41.61,-31.93,-48.64,-49.05,-51.62
2022/11/07 03:11:54+0000,-33.87,-41.88,-32.07,-47.66,-49.15,-51.08
2022/11/07 03:12:46+0000,-34.20,-40.98,-32.21,-48.45,-49.07,-50.64
2022/11/07 03:13:38+0000,-34.71,-42.26,-31.58,-47.88,-49.23,-51.32
2022/11/07 03:14:30+0000,-33.98,-42.26,-32.40,-47.88,-48.80,-50.63
2022/11/07 03:15:22+0000,-33.39,-42.66,-32.53,-48.55,-49.14,-50.35
2022/11/07 03:16:14+0000,-34.28,-41.12,-32.44,-48.92,-49.40,-51.15
2022/11/07 03:17:06+0000,-34.24,-42.99,-32.67,-48.09,-48.97,-50.80
2022/11/07 03:17:58+0000,-31.39,-41.89,-31.83,-48.62,-48.50,-51.92
2022/11/07 03:18:50+0000,-31.46,-44.34,-31.94,-47.72,-49.08,-51.43
2022/11/07 03:19:42+0000,-34.09,-44.74,-32.26,-48.09,-48.96,-51.48
2022/11/07 03:20:34+0000,-34.08,-42.83,-32.10,-47.50,-48.69,-51.54
2022/11/07 03:21:33+0000,-34.80,-43.55,-32.48,-48.48,-48.65,-51.42
2022/11/07 03:22:25+0000,-33.47,-42.47,-32.01,-48.18,-48.91,-51.51
2022/11/07 03:23:17+0000,-33.40,-43.59,-32.92,-48.39,-49.03,-51.48
2022/11/07 03:24:09+0000,-34.68,-42.41,-32.51,-49.04,-49.65,-52.19
2022/11/07 03:25:01+0000,-34.85,-43.28,-32.17,-47.65,-49.21,-51.99
2022/11/07 03:25:53+0000,-34.42,-43.78,-32.75,-48.54,-49.15,-52.39
2022/11/07 03:26:45+0000,-34.82,-42.37,-32.58,-48.06,-49.47,-51.63
2022/11/07 03:27:37+0000,-34.96,-42.86,-32.66,-47.89,-48.53,-52.07
2022/11/07 03:28:29+0000,-34.87,-43.48,-31.69,-47.63,-48.48,-51.88
2022/11/07 03:29:22+0000,-35.51,-45.03,-32.13,-47.92,-48.94,-51.93
2022/11/07 03:30:14+0000,-34.14,-43.03,-31.73,-48.02,-49.59,-51.12
2022/11/07 03:31:14+0000,-33.92,-42.30,-31.86,-47.63,-49.23,-51.36
2022/11/07 03:32:06+0000,-33.00,-44.38,-31.42,-47.79,-48.66,-51.40
2022/11/07 03:32:58+0000,-33.25,-43.78,-31.72,-48.05,-48.30,-51.41
2022/11/07 03:33:51+0000,-33.94,-44.00,-31.82,-48.53,-48.66,-51.35
2022/11/07 03:34:43+0000,-33.85,-42.27,-32.48,-48.12,-48.87,-51.35
2022/11/07 03:35:35+0000,-33.47,-44.05,-31.65,-48.26,-49.02,-51.77
2022/11/07 03:36:27+0000,-33.76,-42.60,-31.86,-47.83,-48.67,-51.53
2022/11/07 03:37:19+0000,-33.42,-42.17,-32.07,-48.11,-48.74,-51.32
2022/11/07 03:38:11+0000,-33.27,-42.20,-32.39,-48.42,-48.70,-51.83
2022/11/07 03:39:03+0000,-32.43,-43.14,-32.51,-48.07,-49.27,-52.04
2022/11/07 03:39:55+0000,-34.37,-43.20,-32.53,-48.45,-48.96,-52.01
2022/11/07 03:40:47+0000,-34.64,-42.16,-31.78,-48.50,-49.25,-51.84
2022/11/07 03:41:50+0000,-34.12,-41.65,-32.31,-48.42,-48.70,-50.46
2022/11/07 03:42:42+0000,-34.09,-41.46,-32.00,-48.38,-49.19,-51.45
2022/11/07 03:43:34+0000,-31.40,-42.11,-31.73,-48.48,-48.79,-51.18
2022/11/07 03:44:26+0000,-34.34,-42.76,-32.00,-48.45,-49.32,-51.98
2022/11/07 03:45:18+0000,-33.29,-40.75,-31.62,-48.60,-48.73,-51.69
2022/11/07 03:46:10+0000,-35.03,-40.66,-32.10,-48.07,-48.75,-52.29
2022/11/07 03:47:02+0000,-32.24,-42.78,-31.88,-48.53,-49.41,-51.86
2022/11/07 03:47:54+0000,-34.19,-43.23,-32.63,-48.97,-49.02,-51.87
2022/11/07 03:48:46+0000,-34.13,-41.41,-33.06,-49.28,-49.36,-52.18
2022/11/07 03:49:39+0000,-29.34,-41.29,-31.75,-48.90,-48.71,-51.65
2022/11/07 03:50:31+0000,-33.77,-43.04,-32.16,-48.73,-48.44,-51.97
2022/11/07 03:51:30+0000,-33.96,-41.95,-32.05,-47.83,-48.91,-51.90
2022/11/07 03:52:22+0000,-33.94,-43.27,-31.86,-47.75,-49.40,-52.42
2022/11/07 03:53:14+0000,-27.05,-41.80,-32.22,-48.20,-49.22,-52.25
2022/11/07 03:54:06+0000,-34.17,-44.07,-31.71,-48.96,-48.51,-51.70
2022/11/07 03:54:58+0000,-34.42,-44.04,-32.03,-48.49,-48.25,-51.52
2022/11/07 03:55:50+0000,-34.99,-41.44,-32.84,-47.86,-48.95,-51.94
2022/11/07 03:56:42+0000,-29.16,-41.51,-32.31,-48.32,-49.12,-49.06
2022/11/07 03:57:34+0000,-31.91,-43.34,-31.85,-48.26,-47.68,-52.60
2022/11/07 03:58:26+0000,-34.66,-42.91,-31.82,-47.79,-49.31,-52.25
2022/11/07 03:59:19+0000,-34.11,-42.03,-32.22,-48.97,-49.34,-51.29
2022/11/07 04:00:11+0000,-32.23,-42.39,-32.28,-48.22,-48.78,-52.13
2022/11/07 04:01:11+0000,-32.60,-42.75,-31.89,-47.67,-48.97,-52.49
2022/11/07 04:02:03+0000,-31.67,-44.28,-31.93,-47.92,-48.78,-52.37
2022/11/07 04:02:55+0000,-35.21,-44.02,-31.53,-47.85,-48.83,-51.81
2022/11/07 04:03:47+0000,-34.36,-42.89,-33.00,-47.70,-48.91,-52.67
2022/11/07 04:04:39+0000,-33.89,-42.47,-32.22,-47.92,-48.10,-52.02
2022/11/07 04:05:31+0000,-34.24,-44.77,-32.05,-48.11,-48.49,-52.67
2022/11/07 04:06:23+0000,-33.92,-44.03,-32.34,-48.08,-49.00,-51.84
2022/11/07 04:07:15+0000,-34.09,-43.10,-32.92,-48.48,-48.84,-52.25
2022/11/07 04:08:07+0000,-33.89,-43.28,-32.83,-48.50,-48.86,-51.41
2022/11/07 04:08:59+0000,-34.61,-44.36,-31.76,-48.24,-49.56,-52.40
2022/11/07 04:09:51+0000,-33.83,-44.17,-31.75,-48.63,-49.17,-52.43
2022/11/07 04:10:43+0000,-34.79,-41.98,-33.01,-48.19,-48.81,-51.95
2022/11/07 04:11:44+0000,-34.96,-42.16,-32.49,-48.79,-49.13,-52.15
2022/11/07 04:12:36+0000,-34.57,-44.24,-31.92,-48.63,-48.51,-51.57
2022/11/07 04:13:28+0000,-32.48,-42.75,-32.20,-48.53,-49.09,-52.21
2022/11/07 04:14:20+0000,-34.57,-45.00,-32.21,-48.64,-49.22,-51.67
2022/11/07 04:15:12+0000,-32.86,-42.83,-32.15,-48.88,-49.64,-52.42
2022/11/07 04:16:04+0000,-33.56,-42.82,-32.19,-48.46,-49.49,-51.44
2022/11/07 04:16:56+0000,-33.26,-43.59,-32.39,-48.44,-50.00,-52.12
2022/11/07 04:17:48+0000,-33.10,-42.11,-32.43,-48.74,-49.12,-52.52
2022/11/07 04:18:40+0000,-28.79,-42.49,-31.98,-47.99,-48.84,-51.86
2022/11/07 04:19:32+0000,-32.94,-43.34,-32.05,-48.56,-49.38,-52.09
2022/11/07 04:20:24+0000,-34.93,-44.96,-31.69,-48.26,-48.97,-51.30
2022/11/07 04:21:23+0000,-31.34,-45.21,-31.86,-48.39,-49.12,-52.02
2022/11/07 04:22:15+0000,-34.78,-43.25,-32.56,-48.39,-49.32,-51.61
2022/11/07 04:23:07+0000,-32.97,-44.83,-32.04,-48.29,-49.32,-51.94
2022/11/07 04:23:59+0000,-34.74,-43.13,-32.13,-48.83,-49.72,-52.25
2022/11/07 04:24:51+0000,-28.91,-43.49,-32.19,-48.80,-49.48,-52.16
2022/11/07 04:25:43+0000,-30.55,-42.66,-31.84,-48.44,-49.43,-52.65
2022/11/07 04:26:35+0000,-31.55,-42.23,-32.43,-48.82,-49.57,-51.16
2022/11/07 04:27:27+0000,-33.97,-42.77,-32.49,-48.62,-49.39,-51.75
2022/11/07 04:28:19+0000,-35.09,-41.93,-32.52,-48.19,-49.98,-51.78
2022/11/07 04:29:11+0000,-34.94,-42.41,-32.19,-48.53,-49.43,-51.84
2022/11/07 04:30:03+0000,-34.64,-43.29,-31.93,-48.65,-50.28,-51.70
2022/11/07 04:31:03+0000,-34.46,-43.17,-32.23,-48.66,-49.82,-51.83
2022/11/07 04:31:55+0000,-33.61,-43.62,-32.42,-48.15,-48.92,-52.51
2022/11/07 04:32:47+0000,-34.85,-42.72,-32.02,-48.73,-49.91,-51.65
2022/11/07 04:33:39+0000,-32.62,-43.61,-32.21,-48.28,-49.37,-51.89
2022/11/07 04:34:31+0000,-35.28,-43.65,-32.47,-48.61,-49.27,-52.21
2022/11/07 04:35:23+0000,-33.98,-43.36,-32.45,-49.16,-49.20,-52.16
2022/11/07 04:36:15+0000,-33.94,-42.91,-32.07,-48.10,-49.22,-52.36
2022/11/07 04:37:07+0000,-34.04,-45.49,-31.74,-47.95,-49.45,-51.84
2022/11/07 04:37:59+0000,-34.95,-44.41,-32.72,-48.77,-49.01,-52.62
2022/11/07 04:38:51+0000,-36.23,-45.01,-32.13,-48.76,-49.07,-51.82
2022/11/07 04:39:43+0000,-35.10,-43.04,-32.53,-48.85,-49.07,-52.00
2022/11/07 04:40:35+0000,-35.63,-44.25,-32.62,-48.98,-48.97,-51.74
2022/11/07 04:41:35+0000,-34.67,-44.31,-32.81,-48.84,-48.71,-51.80
2022/11/07 04:42:27+0000,-35.67,-43.13,-32.47,-48.85,-49.42,-51.86
2022/11/07 04:43:19+0000,-35.55,-44.46,-32.44,-48.20,-49.01,-52.14
2022/11/07 04:44:11+0000,-33.83,-43.49,-32.44,-48.36,-49.55,-52.33
2022/11/07 04:45:03+0000,-34.51,-43.68,-31.99,-48.88,-48.99,-52.21
2022/11/07 04:45:55+0000,-34.55,-44.59,-32.17,-48.64,-48.24,-51.93